WZZ2568 EGKK-EDDH

Flight info

Callsign WZZ2568
Flight time 1h 12m
Altitude 35000
Route FRANE M604 PAAVO Q295 SOMVA DCT MAVAS DCT TULIP Y12 SPY N873 ANDIK M105 RIBSO RIBSO3P
Aircraft A321/M-SDE3FGHIRWY/LB1

Departure

Time 2026-04-24 12:00
Airport London Gatwick Airport (EGKK)

Arrival

Time 2026-04-24 13:13
Airport Hamburg Helmut Schmidt Airport (EDDH)
Time Latitude Longitude Altitude Speed Heading
2026-04-24 11:15 51.15408 -0.17861 213 ft 0 kts 167°
2026-04-24 11:29 51.15409 -0.17861 204 ft 0 kts 167°
2026-04-24 11:44 51.15427 -0.17867 207 ft 4 kts 172°
2026-04-24 11:44 51.15454 -0.17871 207 ft 4 kts 182°
2026-04-24 11:44 51.15479 -0.17864 213 ft 4 kts 211°
2026-04-24 11:45 51.15492 -0.17843 212 ft 0 kts 258°
2026-04-24 11:48 51.15487 -0.17877 209 ft 9 kts 257°
2026-04-24 11:48 51.15468 -0.18012 207 ft 14 kts 257°
2026-04-24 11:49 51.15448 -0.18162 213 ft 14 kts 258°
2026-04-24 11:49 51.15396 -0.18275 205 ft 14 kts 181°
2026-04-24 11:49 51.15301 -0.18246 211 ft 14 kts 168°
2026-04-24 11:49 51.15204 -0.18239 208 ft 14 kts 213°
2026-04-24 11:50 51.15178 -0.18388 203 ft 15 kts 258°
2026-04-24 11:50 51.15155 -0.18548 206 ft 15 kts 257°
2026-04-24 11:50 51.15133 -0.18710 203 ft 15 kts 258°
2026-04-24 11:50 51.15110 -0.18878 207 ft 16 kts 257°
2026-04-24 11:51 51.15086 -0.19044 213 ft 16 kts 257°
2026-04-24 11:51 51.15063 -0.19215 204 ft 16 kts 257°
2026-04-24 11:51 51.15039 -0.19389 214 ft 16 kts 258°
2026-04-24 11:51 51.15015 -0.19566 208 ft 17 kts 258°
2026-04-24 11:52 51.14990 -0.19749 204 ft 17 kts 257°
2026-04-24 11:52 51.14964 -0.19939 206 ft 18 kts 257°
2026-04-24 11:52 51.14937 -0.20134 208 ft 19 kts 257°
2026-04-24 11:52 51.14910 -0.20328 208 ft 15 kts 258°
2026-04-24 11:53 51.14887 -0.20495 210 ft 16 kts 257°
2026-04-24 11:53 51.14863 -0.20667 203 ft 16 kts 257°
2026-04-24 11:53 51.14839 -0.20843 212 ft 16 kts 257°
2026-04-24 11:53 51.14814 -0.21020 204 ft 16 kts 257°
2026-04-24 11:54 51.14782 -0.21196 208 ft 17 kts 253°
2026-04-24 11:54 51.14749 -0.21376 214 ft 17 kts 233°
2026-04-24 11:54 51.14650 -0.21345 211 ft 16 kts 149°
2026-04-24 11:54 51.14614 -0.21325 205 ft 0 kts 166°
2026-04-24 11:58 51.14607 -0.21323 207 ft 5 kts 166°
2026-04-24 11:58 51.14537 -0.21259 207 ft 19 kts 131°
2026-04-24 11:58 51.14526 -0.21128 210 ft 12 kts 79°
2026-04-24 11:58 51.14534 -0.21064 206 ft 0 kts 78°
2026-04-24 11:59 51.14558 -0.20891 209 ft 48 kts 77°
2026-04-24 11:59 51.14679 -0.20022 204 ft 111 kts 77°
2026-04-24 11:59 51.14883 -0.18552 210 ft 159 kts 75°
2026-04-24 12:00 51.15130 -0.16802 723 ft 161 kts 77°
2026-04-24 12:00 51.15375 -0.15053 1382 ft 162 kts 77°
2026-04-24 12:00 51.15617 -0.13301 2077 ft 163 kts 79°
2026-04-24 12:00 51.15867 -0.11430 2349 ft 183 kts 79°
2026-04-24 12:01 51.16150 -0.09333 2543 ft 204 kts 79°
2026-04-24 12:01 51.16470 -0.06986 2728 ft 230 kts 79°
2026-04-24 12:01 51.16815 -0.04393 3115 ft 245 kts 82°
2026-04-24 12:01 51.16860 -0.01660 3771 ft 250 kts 92°
2026-04-24 12:02 51.16804 0.01121 4562 ft 252 kts 91°
2026-04-24 12:02 51.16751 0.03952 4929 ft 257 kts 91°
2026-04-24 12:02 51.16699 0.06818 5036 ft 260 kts 91°
2026-04-24 12:02 51.16648 0.09697 5718 ft 260 kts 92°
2026-04-24 12:03 51.16599 0.12568 6519 ft 260 kts 92°
2026-04-24 12:03 51.16548 0.15472 7180 ft 263 kts 92°
2026-04-24 12:03 51.16524 0.18416 7805 ft 267 kts 91°
2026-04-24 12:03 51.16631 0.21375 8462 ft 271 kts 78°
2026-04-24 12:04 51.17407 0.24118 9105 ft 278 kts 55°
2026-04-24 12:04 51.18874 0.26153 9310 ft 285 kts 31°
2026-04-24 12:04 51.20637 0.27612 9350 ft 286 kts 30°
2026-04-24 12:04 51.22409 0.29053 9404 ft 288 kts 30°
2026-04-24 12:05 51.24195 0.30510 10066 ft 289 kts 30°
2026-04-24 12:05 51.25997 0.31991 10583 ft 298 kts 30°
2026-04-24 12:05 51.27900 0.33573 10707 ft 319 kts 30°
2026-04-24 12:05 51.29932 0.35269 10839 ft 339 kts 30°
2026-04-24 12:06 51.32079 0.37060 11011 ft 356 kts 30°
2026-04-24 12:06 51.34267 0.38887 11452 ft 362 kts 30°
2026-04-24 12:06 51.36515 0.40764 12016 ft 366 kts 30°
2026-04-24 12:06 51.38788 0.42664 12557 ft 371 kts 29°
2026-04-24 12:07 51.41115 0.44609 13116 ft 375 kts 29°
2026-04-24 12:07 51.43411 0.46527 13635 ft 379 kts 29°
2026-04-24 12:07 51.45765 0.48495 14182 ft 383 kts 28°
2026-04-24 12:07 51.48136 0.50489 14693 ft 387 kts 28°
2026-04-24 12:08 51.50528 0.52509 15219 ft 390 kts 28°
2026-04-24 12:08 51.52945 0.54548 15691 ft 395 kts 28°
2026-04-24 12:08 51.55389 0.56603 16222 ft 398 kts 28°
2026-04-24 12:08 51.57851 0.58684 16711 ft 402 kts 28°
2026-04-24 12:09 51.60334 0.60790 17265 ft 404 kts 28°
2026-04-24 12:09 51.62829 0.62910 17788 ft 407 kts 28°
2026-04-24 12:09 51.65345 0.65045 18311 ft 410 kts 28°
2026-04-24 12:09 51.67879 0.67191 18802 ft 414 kts 28°
2026-04-24 12:10 51.70439 0.69361 19233 ft 417 kts 28°
2026-04-24 12:10 51.73015 0.71552 19696 ft 420 kts 28°
2026-04-24 12:10 51.75608 0.73766 20121 ft 424 kts 28°
2026-04-24 12:11 51.80798 0.78237 20943 ft 430 kts 30°
2026-04-24 12:11 51.83233 0.80937 21412 ft 431 kts 40°
2026-04-24 12:11 51.85296 0.84423 21839 ft 430 kts 57°
2026-04-24 12:11 51.86577 0.88763 22232 ft 429 kts 76°
2026-04-24 12:12 51.87040 0.93519 22624 ft 429 kts 87°
2026-04-24 12:12 51.87434 0.98327 23019 ft 433 kts 81°
2026-04-24 12:12 51.88154 1.03065 23384 ft 437 kts 73°
2026-04-24 12:12 51.89234 1.07689 23771 ft 440 kts 70°
2026-04-24 12:13 51.89971 1.12477 24077 ft 439 kts 89°
2026-04-24 12:13 51.89618 1.17336 24350 ft 437 kts 108°
2026-04-24 12:13 51.88760 1.22070 24608 ft 441 kts 102°
2026-04-24 12:13 51.88705 1.27052 24858 ft 449 kts 81°
2026-04-24 12:14 51.89737 1.31839 25107 ft 454 kts 63°
2026-04-24 12:14 51.91331 1.36276 25372 ft 458 kts 57°
2026-04-24 12:14 51.93109 1.40568 25636 ft 461 kts 56°
2026-04-24 12:14 51.94884 1.44920 25903 ft 464 kts 58°
2026-04-24 12:15 51.96556 1.49418 26175 ft 467 kts 60°
2026-04-24 12:15 51.98099 1.54070 26447 ft 470 kts 63°
2026-04-24 12:15 51.99541 1.58845 26711 ft 472 kts 65°
2026-04-24 12:15 52.00933 1.63702 26969 ft 475 kts 65°
2026-04-24 12:16 52.02302 1.68531 27219 ft 478 kts 65°
2026-04-24 12:16 52.03710 1.73430 27484 ft 481 kts 65°
2026-04-24 12:16 52.05155 1.78345 27781 ft 482 kts 64°
2026-04-24 12:16 52.06631 1.83255 28042 ft 485 kts 64°
2026-04-24 12:17 52.08128 1.88180 28307 ft 488 kts 64°
2026-04-24 12:17 52.09639 1.93135 28554 ft 490 kts 64°
2026-04-24 12:17 52.11154 1.98120 28792 ft 493 kts 64°
2026-04-24 12:17 52.12666 2.03134 29142 ft 493 kts 64°
2026-04-24 12:18 52.14167 2.08149 29504 ft 493 kts 65°
2026-04-24 12:18 52.15666 2.13179 29852 ft 494 kts 65°
2026-04-24 12:18 52.17162 2.18227 30190 ft 494 kts 65°
2026-04-24 12:18 52.18654 2.23279 30517 ft 495 kts 65°
2026-04-24 12:19 52.20142 2.28331 30793 ft 495 kts 65°
2026-04-24 12:19 52.21631 2.33395 31070 ft 495 kts 65°
2026-04-24 12:19 52.23125 2.38469 31364 ft 495 kts 65°
2026-04-24 12:19 52.24618 2.43536 31652 ft 495 kts 65°
2026-04-24 12:20 52.26091 2.48539 31949 ft 495 kts 65°
2026-04-24 12:20 52.27580 2.53563 32142 ft 491 kts 65°
2026-04-24 12:20 52.29062 2.58597 32309 ft 490 kts 66°
2026-04-24 12:20 52.30469 2.63658 32461 ft 488 kts 70°
2026-04-24 12:21 52.31536 2.68923 32617 ft 489 kts 76°
2026-04-24 12:21 52.32469 2.74291 32806 ft 491 kts 76°
2026-04-24 12:21 52.33411 2.79656 33054 ft 492 kts 76°
2026-04-24 12:21 52.34359 2.85041 33316 ft 492 kts 76°
2026-04-24 12:22 52.35305 2.90413 33577 ft 492 kts 76°
2026-04-24 12:22 52.36253 2.95803 33844 ft 492 kts 76°
2026-04-24 12:22 52.37195 3.01189 34089 ft 492 kts 76°
2026-04-24 12:22 52.38131 3.06581 34347 ft 492 kts 76°
2026-04-24 12:23 52.39032 3.11969 34582 ft 491 kts 79°
2026-04-24 12:23 52.39558 3.17468 34798 ft 488 kts 88°
2026-04-24 12:23 52.39606 3.22932 34995 ft 484 kts 97°
2026-04-24 12:23 52.39364 3.28419 35206 ft 483 kts 97°
2026-04-24 12:24 52.39120 3.33911 35312 ft 484 kts 97°
2026-04-24 12:24 52.38642 3.44916 35332 ft 485 kts 97°
2026-04-24 12:25 52.38161 3.55911 35339 ft 483 kts 97°
2026-04-24 12:25 52.37666 3.66876 35334 ft 483 kts 97°
2026-04-24 12:26 52.37145 3.77834 35347 ft 483 kts 97°
2026-04-24 12:26 52.37431 3.88834 35347 ft 488 kts 80°
2026-04-24 12:27 52.39229 3.99486 35332 ft 489 kts 75°
2026-04-24 12:27 52.41122 4.10188 35341 ft 490 kts 76°
2026-04-24 12:28 52.42996 4.20925 35342 ft 490 kts 76°
2026-04-24 12:28 52.44859 4.31663 35356 ft 490 kts 76°
2026-04-24 12:29 52.46715 4.42418 35342 ft 490 kts 76°
2026-04-24 12:29 52.48565 4.53171 35343 ft 490 kts 76°
2026-04-24 12:30 52.50404 4.63934 35339 ft 490 kts 76°
2026-04-24 12:30 52.52221 4.74660 35343 ft 490 kts 76°
2026-04-24 12:31 52.54498 4.85162 35338 ft 492 kts 63°
2026-04-24 12:31 52.58376 4.94398 35337 ft 492 kts 51°
2026-04-24 12:32 52.62622 5.03221 35318 ft 492 kts 51°
2026-04-24 12:32 52.66847 5.12098 35345 ft 492 kts 52°
2026-04-24 12:33 52.71070 5.20997 35342 ft 493 kts 52°
2026-04-24 12:33 52.74658 5.30581 35336 ft 491 kts 68°
2026-04-24 12:34 52.76993 5.41142 35336 ft 490 kts 72°
2026-04-24 12:34 52.79272 5.51746 35333 ft 490 kts 72°
2026-04-24 12:35 52.81552 5.62356 35317 ft 490 kts 72°
2026-04-24 12:35 52.83818 5.72986 35313 ft 490 kts 72°
2026-04-24 12:36 52.86071 5.83639 35316 ft 491 kts 72°
2026-04-24 12:36 52.88309 5.94250 35319 ft 491 kts 72°
2026-04-24 12:37 52.90559 6.05004 35325 ft 491 kts 72°
2026-04-24 12:37 52.92776 6.15631 35308 ft 491 kts 72°
2026-04-24 12:38 52.94998 6.26342 35307 ft 491 kts 72°
2026-04-24 12:38 52.97213 6.37068 35305 ft 492 kts 72°
2026-04-24 12:39 53.01614 6.58598 35316 ft 492 kts 73°
2026-04-24 12:40 53.03800 6.69361 35311 ft 492 kts 72°
2026-04-24 12:40 53.05964 6.80086 35312 ft 492 kts 72°
2026-04-24 12:41 53.08126 6.90898 35311 ft 493 kts 72°
2026-04-24 12:41 53.10283 7.01712 35302 ft 492 kts 72°
2026-04-24 12:42 53.12432 7.12530 35303 ft 492 kts 72°
2026-04-24 12:42 53.14571 7.23365 35295 ft 492 kts 72°
2026-04-24 12:43 53.16701 7.34213 35299 ft 493 kts 72°
2026-04-24 12:43 53.18817 7.45073 35294 ft 493 kts 72°
2026-04-24 12:43 53.19874 7.50518 35017 ft 495 kts 72°
2026-04-24 12:44 53.20941 7.56041 33881 ft 507 kts 72°
2026-04-24 12:44 53.22018 7.61633 33121 ft 506 kts 72°
2026-04-24 12:44 53.23101 7.67245 32335 ft 506 kts 72°
2026-04-24 12:44 53.24159 7.72738 31564 ft 503 kts 72°
2026-04-24 12:45 53.25223 7.78284 30264 ft 504 kts 72°
2026-04-24 12:45 53.26284 7.83832 29633 ft 498 kts 71°
2026-04-24 12:45 53.27327 7.89307 29075 ft 492 kts 71°
2026-04-24 12:45 53.28355 7.94733 28506 ft 487 kts 71°
2026-04-24 12:46 53.29372 8.00111 27935 ft 483 kts 71°
2026-04-24 12:46 53.30378 8.05437 27364 ft 478 kts 71°
2026-04-24 12:46 53.31368 8.10707 26798 ft 473 kts 71°
2026-04-24 12:46 53.32349 8.15926 26255 ft 468 kts 71°
2026-04-24 12:47 53.33372 8.21077 25696 ft 464 kts 69°
2026-04-24 12:47 53.34482 8.26118 25164 ft 460 kts 67°
2026-04-24 12:47 53.35647 8.31068 24639 ft 455 kts 66°
2026-04-24 12:47 53.36825 8.35941 24091 ft 451 kts 66°
2026-04-24 12:48 53.37601 8.39149 23742 ft 448 kts 66°
2026-04-24 12:48 53.38749 8.43969 23176 ft 443 kts 66°
2026-04-24 12:48 53.39864 8.48751 22671 ft 438 kts 67°
2026-04-24 12:48 53.40977 8.53456 22177 ft 432 kts 65°
2026-04-24 12:49 53.42556 8.59535 21555 ft 425 kts 63°
2026-04-24 12:49 53.43792 8.64018 21092 ft 421 kts 62°
2026-04-24 12:49 53.44632 8.67010 20779 ft 419 kts 62°
2026-04-24 12:49 53.45869 8.71418 20325 ft 415 kts 62°
2026-04-24 12:50 53.47081 8.75799 19882 ft 412 kts 63°
2026-04-24 12:50 53.48253 8.80101 19442 ft 409 kts 63°
2026-04-24 12:50 53.49434 8.84494 18995 ft 406 kts 63°
2026-04-24 12:50 53.50569 8.88746 18541 ft 403 kts 63°
2026-04-24 12:51 53.51710 8.93030 18033 ft 400 kts 63°
2026-04-24 12:51 53.52910 8.97199 17571 ft 393 kts 56°
2026-04-24 12:51 53.54475 9.00911 17117 ft 384 kts 45°
2026-04-24 12:51 53.56361 9.04002 16657 ft 375 kts 35°
2026-04-24 12:52 53.58453 9.06554 16208 ft 369 kts 32°
2026-04-24 12:52 53.60534 9.09028 15760 ft 365 kts 32°
2026-04-24 12:52 53.63258 9.12292 15153 ft 360 kts 32°
2026-04-24 12:52 53.64631 9.13943 14843 ft 357 kts 32°
2026-04-24 12:53 53.66643 9.16365 14399 ft 354 kts 32°
2026-04-24 12:53 53.68612 9.18735 13924 ft 351 kts 32°
2026-04-24 12:53 53.70610 9.21140 13435 ft 346 kts 32°
2026-04-24 12:53 53.72527 9.23457 12998 ft 341 kts 32°
2026-04-24 12:54 53.74448 9.25782 12552 ft 337 kts 32°
2026-04-24 12:54 53.76340 9.28074 12115 ft 332 kts 32°
2026-04-24 12:54 53.78205 9.30340 11684 ft 329 kts 34°
2026-04-24 12:54 53.79862 9.33008 11249 ft 330 kts 46°
2026-04-24 12:55 53.81146 9.36238 10740 ft 334 kts 58°
2026-04-24 12:55 53.81984 9.39939 10330 ft 337 kts 72°
2026-04-24 12:55 53.82442 9.43753 10317 ft 321 kts 74°
2026-04-24 12:55 53.82860 9.47318 10514 ft 298 kts 73°
2026-04-24 12:56 53.83277 9.50751 10261 ft 297 kts 73°
2026-04-24 12:56 53.83696 9.54145 10091 ft 294 kts 73°
2026-04-24 12:56 53.84115 9.57533 9990 ft 293 kts 73°
2026-04-24 12:56 53.84529 9.60904 10003 ft 293 kts 73°
2026-04-24 12:57 53.84942 9.64293 10004 ft 294 kts 73°
2026-04-24 12:57 53.85342 9.67635 9999 ft 293 kts 73°
2026-04-24 12:57 53.85742 9.71023 10001 ft 292 kts 73°
2026-04-24 12:57 53.86126 9.74307 9993 ft 277 kts 73°
2026-04-24 12:58 53.86488 9.77415 10022 ft 261 kts 73°
2026-04-24 12:58 53.86678 9.80491 9999 ft 266 kts 86°
2026-04-24 12:58 53.86487 9.83632 10002 ft 269 kts 91°
2026-04-24 12:58 53.86266 9.86772 10001 ft 268 kts 91°
2026-04-24 12:59 53.86047 9.89912 9998 ft 268 kts 91°
2026-04-24 12:59 53.85828 9.93053 9997 ft 269 kts 91°
2026-04-24 12:59 53.85606 9.96202 9807 ft 268 kts 91°
2026-04-24 12:59 53.85383 9.99333 9625 ft 267 kts 91°
2026-04-24 13:00 53.85159 10.02450 9441 ft 267 kts 91°
2026-04-24 13:00 53.84931 10.05564 9260 ft 266 kts 91°
2026-04-24 13:00 53.84704 10.08661 9084 ft 265 kts 91°
2026-04-24 13:00 53.84477 10.11758 8896 ft 264 kts 91°
2026-04-24 13:01 53.84254 10.14842 8719 ft 263 kts 91°
2026-04-24 13:01 53.84283 10.17878 8539 ft 254 kts 73°
2026-04-24 13:01 53.84825 10.20656 8362 ft 245 kts 56°
2026-04-24 13:01 53.85781 10.22991 8187 ft 238 kts 43°
2026-04-24 13:02 53.86851 10.25128 8015 ft 238 kts 44°
2026-04-24 13:02 53.87898 10.27250 7838 ft 237 kts 44°
2026-04-24 13:02 53.88954 10.29399 7664 ft 237 kts 44°
2026-04-24 13:02 53.90006 10.31546 7488 ft 236 kts 44°
2026-04-24 13:03 53.91051 10.33681 7314 ft 235 kts 44°
2026-04-24 13:03 53.92093 10.35807 7146 ft 234 kts 44°
2026-04-24 13:03 53.93137 10.37934 6980 ft 234 kts 44°
2026-04-24 13:03 53.94177 10.40054 6809 ft 233 kts 44°
2026-04-24 13:04 53.95173 10.42227 6634 ft 236 kts 54°
2026-04-24 13:04 53.95554 10.44977 6457 ft 250 kts 89°
2026-04-24 13:04 53.94903 10.47752 6276 ft 263 kts 128°
2026-04-24 13:04 53.93550 10.49869 6116 ft 265 kts 137°
2026-04-24 13:05 53.92009 10.51551 5922 ft 265 kts 162°
2026-04-24 13:05 53.90204 10.51785 5751 ft 260 kts 194°
2026-04-24 13:05 53.88601 10.50555 5575 ft 251 kts 224°
2026-04-24 13:05 53.87445 10.48408 5413 ft 246 kts 235°
2026-04-24 13:06 53.86356 10.46181 5235 ft 245 kts 235°
2026-04-24 13:06 53.85270 10.43962 5061 ft 244 kts 234°
2026-04-24 13:06 53.84200 10.41784 4888 ft 243 kts 234°
2026-04-24 13:06 53.83120 10.39586 4705 ft 242 kts 234°
2026-04-24 13:07 53.82045 10.37401 4528 ft 241 kts 234°
2026-04-24 13:07 53.80973 10.35230 4348 ft 240 kts 234°
2026-04-24 13:07 53.79897 10.33072 4162 ft 240 kts 234°
2026-04-24 13:07 53.78823 10.30924 3995 ft 239 kts 234°
2026-04-24 13:08 53.77753 10.28787 3827 ft 234 kts 233°
2026-04-24 13:08 53.76724 10.26724 3638 ft 226 kts 234°
2026-04-24 13:08 53.75720 10.24680 3471 ft 225 kts 236°
2026-04-24 13:09 53.73750 10.20639 3175 ft 221 kts 236°
2026-04-24 13:09 53.72775 10.18642 2940 ft 219 kts 235°
2026-04-24 13:09 53.71813 10.16681 2662 ft 215 kts 235°
2026-04-24 13:09 53.70870 10.14760 2369 ft 211 kts 236°
2026-04-24 13:10 53.69948 10.12879 2095 ft 205 kts 236°
2026-04-24 13:10 53.69090 10.11134 1840 ft 186 kts 236°
2026-04-24 13:10 53.68312 10.09558 1591 ft 161 kts 237°
2026-04-24 13:10 53.67637 10.08184 1363 ft 147 kts 238°
2026-04-24 13:11 53.66996 10.06872 1157 ft 144 kts 237°
2026-04-24 13:11 53.66366 10.05586 973 ft 140 kts 237°
2026-04-24 13:11 53.65747 10.04336 752 ft 137 kts 238°
2026-04-24 13:11 53.65137 10.03096 546 ft 138 kts 236°
2026-04-24 13:12 53.64518 10.01841 366 ft 139 kts 233°
2026-04-24 13:12 53.63907 10.00603 207 ft 137 kts 236°
2026-04-24 13:12 53.63303 9.99382 52 ft 131 kts 237°
2026-04-24 13:12 53.62813 9.98358 45 ft 89 kts 229°
2026-04-24 13:13 53.62523 9.97779 41 ft 40 kts 230°
2026-04-24 13:13 53.62426 9.97587 42 ft 16 kts 230°
2026-04-24 13:13 53.62346 9.97425 42 ft 20 kts 229°
2026-04-24 13:13 53.62225 9.97390 41 ft 19 kts 150°
2026-04-24 13:14 53.62182 9.97484 40 ft 4 kts 110°
2026-04-24 13:14 53.62176 9.97539 40 ft 4 kts 89°
2026-04-24 13:14 53.62193 9.97607 40 ft 11 kts 59°
2026-04-24 13:14 53.62240 9.97707 40 ft 15 kts 50°
2026-04-24 13:15 53.62311 9.97849 41 ft 16 kts 50°
2026-04-24 13:15 53.62385 9.97997 41 ft 17 kts 50°
2026-04-24 13:15 53.62469 9.98138 41 ft 17 kts 40°
2026-04-24 13:15 53.62554 9.98276 42 ft 17 kts 49°
2026-04-24 13:16 53.62630 9.98430 42 ft 17 kts 51°
2026-04-24 13:16 53.62707 9.98588 43 ft 18 kts 49°
2026-04-24 13:16 53.62779 9.98731 43 ft 15 kts 50°
2026-04-24 13:16 53.62849 9.98873 43 ft 16 kts 50°
2026-04-24 13:17 53.62921 9.99020 43 ft 17 kts 50°
2026-04-24 13:17 53.62990 9.99158 44 ft 15 kts 50°
2026-04-24 13:17 53.63057 9.99299 44 ft 16 kts 54°
2026-04-24 13:17 53.63119 9.99452 46 ft 16 kts 56°
2026-04-24 13:18 53.63190 9.99605 44 ft 17 kts 49°
2026-04-24 13:18 53.63207 9.99773 43 ft 16 kts 137°
2026-04-24 13:18 53.63107 9.99869 45 ft 17 kts 151°
2026-04-24 13:18 53.63000 9.99954 45 ft 17 kts 153°
2026-04-24 13:19 53.62906 10.00051 46 ft 13 kts 120°
2026-04-24 13:19 53.62958 10.00142 43 ft 12 kts 31°
2026-04-24 13:19 53.63031 10.00220 46 ft 12 kts 32°
2026-04-24 13:19 53.63068 10.00260 45 ft 1 kts 46°
2026-04-24 13:20 53.63068 10.00269 45 ft 0 kts 85°
2026-04-24 13:20 53.63064 10.00275 45 ft 0 kts 124°
2026-04-24 13:20 53.63055 10.00291 46 ft 3 kts 128°
2026-04-24 13:20 53.63041 10.00327 46 ft 4 kts 123°
2026-04-24 13:21 53.63033 10.00349 46 ft 0 kts 123°